Location: Saze
(43.9434°N, 4.6810°E)
Time: 05:16:27
(UTC+00:00)

Daily predictions for brighter satellites

Satellite Brightness Start Highest point End
(mag) Time Altitude Azimuth Time Altitude Azimuth Time Altitude Azimuth
SJ 16-02 4.2 00:10:38 11° ENE 00:10:38 11° ENE 00:10:49 10° ENE
Cosmos 1844 4.5 00:23:31 49° NNE 00:23:31 49° NNE 00:27:42 10° NNE
ATLAS 5 CENTAUR R/B 3.9 00:18:08 10° NNW 00:22:54 30° NE 00:28:23 10° E
Meteor 1-11 Rocket 4.4 00:17:17 10° N 00:21:46 54° N 00:21:46 54° N
USA 281 3.6 00:29:00 55° NW 00:29:00 55° NW 00:34:11 10° NNW
Nadezhda 1 Rocket 4.4 00:35:58 59° NNW 00:35:58 59° NNW 00:41:21 10° N
CZ-4C R/B 4.4 00:31:33 10° NNW 00:37:43 32° NE 00:44:49 10° E
SL-16 R/B 3.1 00:48:09 47° E 00:48:59 50° ENE 00:55:00 10° N
Cosmos 2366 rocket 4.4 00:43:47 10° N 00:49:48 52° ENE 00:49:52 52° E
Cosmos 1844 Rocket 3.9 01:04:03 31° NW 01:04:03 31° NW 01:08:34 10° N
Cosmos 1238 Rocket 4.0 01:00:54 10° N 01:07:14 80° ENE 01:07:14 80° ENE
SL-4 R/B 3.7 01:11:02 38° N 01:11:27 38° NNE 01:15:57 10° E
Helios 1B rocket 4.2 01:08:06 10° NNE 01:10:19 30° NNE 01:10:19 30° NNE
Cosmos 2082 Rocket 3.4 01:15:13 10° NNW 01:20:29 39° ENE 01:23:49 20° ESE
Resurs 1-4 Rocket 2.3 01:21:18 10° NNE 01:25:56 69° NNE 01:25:56 69° NNE
Cosmos 1833 Rocket 2.7 01:23:12 10° NNW 01:28:24 74° N 01:28:24 74° N
ADEOS Rocket 4.5 01:24:28 10° SE 01:30:12 38° ENE 01:36:36 10° N
BREEZE-M R/B 4.0 01:33:23 51° N 01:33:26 51° N 01:40:22 10° ENE
CZ-2D R/B 2.2 01:32:29 10° NNE 01:37:41 75° NW 01:37:41 75° NW
Cosmos 2181 Rocket 4.1 01:38:48 59° WNW 01:38:48 59° WNW 01:44:57 10° N
Milstar 3 4.4 01:44:53 21° SSE 01:44:53 21° SSE 01:49:47 10° ESE
Cosmos 2278 Rocket 2.1 01:44:17 78° WNW 01:44:17 78° WNW 01:49:56 10° NNE
USA 234 3.2 01:38:58 10° NE 01:45:28 65° SE 01:46:23 59° S
SJ 16-02 2.3 01:47:37 41° NNW 01:47:37 41° NNW 01:50:49 10° N
Cosmos 923 Rocket 4.0 01:43:43 10° NNW 01:48:58 77° ENE 01:49:14 74° ESE
SL-8 Rocket 4.5 01:43:27 10° NNW 01:48:53 45° WNW 01:48:53 45° WNW
Cosmos 1943 Rocket 4.0 01:47:44 18° SE 01:49:56 22° E 01:54:09 10° NE
Cosmos 990 Rocket 4.1 01:51:51 66° ESE 01:51:59 66° ESE 01:57:10 10° NNE
Gbstr 26 Del rocket 4.0 01:51:53 50° WNW 01:53:01 59° NNW 01:58:11 10° NE
BREEZE-M DEB (TANK) 4.3 01:46:55 10° WNW 01:52:42 41° NW 01:52:42 41° NW
Cosmos 158 Rocket 4.5 01:51:34 10° NNW 01:55:07 46° NW 01:55:07 46° NW
Okean 1-7 3.4 01:57:13 58° ENE 01:57:13 58° ENE 02:00:59 10° NNE
Meteor 2-9 Rocket 4.3 01:51:29 10° NNW 01:57:12 64° W 01:57:12 64° W
ADEOS II 2.0 01:56:03 10° NNE 02:01:20 81° ESE 02:01:52 71° SSE
COSMOS 2406 3.7 01:57:51 10° NW 02:02:05 43° WNW 02:02:05 43° WNW
Cosmos 1937 Rocket 4.0 02:03:07 43° SE 02:04:01 49° ESE 02:08:58 10° NNE
Cosmos 1975 4.4 02:02:03 10° NNW 02:04:06 28° NNW 02:04:06 28° NNW
ATLAS 5 CENTAUR R/B 2.3 02:02:15 10° NW 02:07:58 67° WSW 02:09:45 47° S
ARIANE 5 R/B 4.1 02:03:41 10° NE 02:08:17 30° E 02:11:10 18° SE
Cosmos 1898 Rocket 3.5 02:08:04 65° SSE 02:08:43 75° ESE 02:14:00 10° NNE
Cosmos 2369 Rocket 4.5 02:07:37 10° SE 02:11:08 17° E 02:14:39 10° ENE
NPP 4.1 02:11:08 10° N 02:16:15 45° WNW 02:16:37 44° W
Cosmos 2297 4.3 02:15:39 36° SSE 02:17:35 52° ESE 02:23:07 10° NE
ARGOS Delta rocket 3.4 02:15:25 10° N 02:19:51 81° WNW 02:19:56 81° W
DELTA 2 DEB (DPAF) 4.5 02:21:56 50° WNW 02:21:56 50° WNW 02:25:35 10° NNW
AQUA 4.4 02:18:43 10° N 02:23:10 42° WNW 02:23:10 42° WNW
Cosmos 2242 Rocket 3.8 02:23:59 56° WNW 02:23:59 56° WNW 02:28:04 10° N
CBERS-1 3.9 02:19:44 10° NNE 02:24:53 89° W 02:26:04 55° SSW
IDEFIX/ARIANE 42P 2.8 02:21:03 10° NNE 02:26:16 68° ESE 02:28:15 38° S
CZ-4C R/B 2.9 02:19:41 10° NW 02:27:04 82° SW 02:35:32 10° SSE
CZ-4C R/B 3.4 02:28:03 72° SSW 02:28:27 81° WSW 02:32:53 10° NNW
Cosmos 2239 Rocket 4.4 02:22:20 10° N 02:28:33 76° W 02:31:25 34° S
Cosmos 2112 Rocket 3.9 02:23:23 10° NNW 02:28:41 76° WSW 02:30:48 38° S
SL-16 R/B 3.5 02:33:14 29° W 02:33:14 29° W 02:38:09 10° NW
IRS-1D 3.6 02:27:54 10° N 02:33:02 64° WNW 02:34:11 50° SW
Cosmos 1378 2.9 02:40:01 82° W 02:40:03 82° W 02:43:46 10° N
NOSS 3-4 (A) 3.9 02:33:40 10° NW 02:40:44 82° NE 02:48:37 10° SE
NOSS 3-4 (C) 3.9 02:33:47 10° NW 02:40:51 81° NE 02:48:43 10° SE
Meteor 1-12 Rocket 4.3 02:35:43 10° NNW 02:41:46 83° W 02:46:15 18° S
Meteor 1-13 Rocket 4.2 02:40:01 36° SSW 02:42:31 83° W 02:48:16 10° N
Cosmos 1821 Rocket 4.3 02:37:25 10° NNW 02:43:28 49° W 02:45:36 36° SW
USA 81 4.1 02:39:20 10° N 02:44:38 82° E 02:48:34 18° S
IRS-1C 4.1 02:39:31 10° NNE 02:44:53 81° ESE 02:47:37 30° S
Cosmos 1733 4.4 02:43:03 10° N 02:46:39 42° ENE 02:50:14 10° SSE
Meteor 2-4 Rocket 4.5 02:49:17 33° WSW 02:50:51 39° WNW 02:56:22 10° N
SL-4 R/B 2.3 02:46:41 10° WNW 02:51:33 84° SSW 02:56:19 10° SE
Cosmos 1805 3.5 02:49:21 10° N 02:53:15 66° E 02:56:18 16° SSE
Cosmos 1356 Rocket 3.3 02:50:20 10° N 02:54:28 85° E 02:57:26 19° SSE
FALCON 9 DEB 2.8 02:54:08 66° NNW 02:54:29 79° NE 02:57:34 10° ESE
DELTA 2 R/B (1) 3.7 02:52:49 37° WSW 02:54:42 56° S 03:00:09 10° ESE
ATLAS 2AS CENTAUR R/B 3.2 02:47:48 10° NNW 02:55:10 65° NE 03:01:55 10° SE
X-37B 0.4 02:56:51 79° S 02:56:55 80° SSE 03:00:07 10° ENE
MSX 3.8 02:52:33 10° NNE 02:58:21 89° WNW 03:02:10 22° SSW
CZ-4B R/B 3.2 02:54:02 10° NNE 02:58:49 84° WNW 03:01:17 29° SSW
Cosmos 1535 Rocket 4.4 02:54:27 10° NNW 03:00:33 70° W 03:06:16 12° S
Cosmos 2084 3.5 03:00:34 41° WSW 03:01:46 60° NW 03:05:59 10° NNE
FALCON 9 DEB 2.7 03:02:30 70° SSW 03:02:30 70° SSW 03:05:28 10° SE
Cosmos 1680 Rocket 4.2 02:58:19 10° NW 03:03:00 32° W 03:03:40 31° WSW
Cosmos 2082 Rocket 2.8 02:59:30 10° NW 03:04:27 32° WSW 03:05:33 30° SW
Resurs 1-4 Rocket 4.0 03:02:57 10° NNW 03:05:41 14° WNW 03:07:01 13° WNW
SL-08 R/B 3.3 03:03:44 10° S 03:08:37 75° WSW 03:13:29 10° NNW
FALCON 9 DEB 2.9 03:15:20 48° SW 03:15:27 48° SW 03:18:26 10° SE
Cosmos 2151 Rocket 3.7 03:11:00 10° N 03:15:33 82° E 03:20:05 10° S
ADEOS Rocket 3.6 03:11:24 19° SSW 03:15:34 42° W 03:22:10 10° NNW
ERS-1 4.4 03:10:48 10° N 03:15:45 68° WNW 03:19:03 21° SSW
CZ-2D R/B 4.2 03:14:48 10° NNW 03:17:08 13° NW 03:19:01 11° WNW
COSMOS 2441 4.4 03:15:18 10° N 03:20:07 64° WNW 03:23:25 20° SSW
Okean 2 Rocket 3.0 03:15:46 10° NNW 03:20:11 68° W 03:24:33 10° S
Cosmos 1300 Rocket 3.7 03:17:09 10° NNW 03:21:30 52° W 03:25:08 14° SSW
Cosmos 1934 Rocket 4.4 03:18:45 10° NNW 03:24:36 41° W 03:29:33 14° SSW
Cosmos 2221 Rocket 3.7 03:22:38 21° SSW 03:25:26 57° W 03:29:55 10° N
CZ-2D R/B 3.5 03:22:14 10° N 03:26:20 66° WNW 03:29:20 18° SSW
USA 234 3.9 03:22:07 10° NE 03:28:20 48° NNW 03:33:43 14° W
Cosmos 2278 Rocket 4.2 03:26:08 10° WNW 03:29:18 15° NW 03:32:34 10° N
Cosmos 1842 3.3 03:28:20 10° S 03:32:11 79° E 03:36:04 10° N
Meteor 1-15 Rocket 4.4 03:27:33 10° NNW 03:32:56 51° W 03:38:19 10° SSW
Cosmos 1943 Rocket 2.4 03:29:16 19° SW 03:33:12 57° WNW 03:38:48 10° NNE
FALCON 9 DEB 3.2 03:32:07 22° W 03:33:42 39° SW 03:36:37 10° SSE
Cosmos 1726 3.9 03:30:51 10° N 03:34:19 35° ENE 03:37:46 10° SE
Cosmos 1048 Rocket 4.2 03:29:11 10° NNW 03:34:35 77° ENE 03:39:55 10° SSE
Okean 2 3.9 03:31:36 10° S 03:35:40 61° E 03:39:47 10° NNE
ADEOS II 3.9 03:37:22 10° NNW 03:40:21 15° WNW 03:42:48 12° W
CZ-2C R/B 2.3 03:38:43 10° NNE 03:43:31 87° W 03:48:27 10° SSW
Cosmos 1605 Rocket 4.3 03:40:44 10° NNW 03:46:28 43° W 03:52:13 10° SSW
Okean 1 Rocket 3.2 03:42:09 10° N 03:46:39 83° E 03:51:06 10° S
ARIANE 5 R/B 3.3 03:42:38 10° N 03:47:24 36° WNW 03:51:31 13° SW
ATLAS 5 CENTAUR R/B 4.1 03:49:44 10° W 03:50:58 12° W 03:50:58 12° W
Cosmos 468 4.5 03:48:12 10° NNW 03:53:32 75° WSW 03:58:46 10° SSE
CZ-2C R/B 2.8 03:50:23 10° N 03:54:07 58° WNW 03:57:53 10° SSW
Cosmos 2369 Rocket 2.2 03:48:56 10° SSW 03:54:30 70° WNW 04:00:07 10° NNE
Meteor 2-20 Rocket 4.4 03:51:21 10° SSW 03:57:28 79° W 04:03:40 10° N
Cosmos 1758 4.1 03:53:49 10° N 03:57:50 57° E 04:01:51 10° SSE
Spot 4 Rocket 4.4 03:52:59 10° N 03:57:54 46° WNW 04:02:48 10° SW
Cosmos 1484 Rocket 3.7 03:54:05 10° NNE 03:58:01 52° E 04:01:54 10° S
Cosmos 494 Rocket 4.0 03:56:04 10° NNW 04:01:20 86° WSW 04:06:32 10° SSE
Landsat 5 4.2 03:57:11 10° SSE 04:01:36 64° ENE 04:06:06 10° N
Cosmos 1900 4.4 03:57:09 10° SW 04:02:15 72° WNW 04:07:22 10° NNE
ALOS 2.4 03:57:46 10° NNE 04:02:28 80° E 04:07:08 10° S
Cosmos 2298 Rocket 4.2 03:57:36 10° SW 04:02:49 59° WNW 04:08:05 10° NNE
PAYLOAD A 4.2 03:58:25 10° N 04:03:24 53° WNW 04:08:10 10° SSW
Cosmos 2100 Rocket 4.0 03:58:29 10° N 04:04:41 80° W 04:10:54 10° S
IDEFIX/ARIANE 42P 4.2 04:01:53 10° NNW 04:05:19 18° WNW 04:08:44 10° WSW
Cosmos 1766 4.4 04:03:09 10° NW 04:06:24 24° W 04:09:38 10° SW
Cosmos 1378 Rocket 4.0 04:04:24 10° SSW 04:08:37 44° WNW 04:12:50 10° N
CZ-4C R/B 4.1 04:09:44 10° WNW 04:15:03 20° WSW 04:20:46 10° SSW
Cosmos 2173 Rocket 3.9 04:09:56 10° NNW 04:16:01 70° W 04:22:04 10° S
Cosmos 1315 Rocket 4.0 04:16:16 10° N 04:20:04 48° ENE 04:23:51 10° SSE
USA 305 4.3 04:16:25 10° NW 04:20:28 40° NNE 04:24:32 10° E
Cosmos 2123 Rocket 4.2 04:16:46 10° S 04:22:57 81° E 04:29:09 10° N
